Flag for Canada Weather past 2 weeks in Calgary, Alberta, Canada

Now
46 °F

Scattered clouds.


Feels Like: 38 °F
Forecast: 34 / 45 °F
Wind: 22 mph from West

Location: Calgary International

Current Time: Mar 31, 2015 at 9:54:55 PM

Latest Report: Mar 31, 2015 at 9:00 PM


Visibility: 15 mi

Pressure: 29.60 "Hg

Humidity: 29%

Dew point: 16 °F

Location of CalgaryLocation

Historic Weather in Calgary — Graph

°F

Calgary temperature yesterday

Maximum temperature yesterday: 63 °F (at 4:00 PM)
Minimum temperature yesterday: 32 °F (at 6:00 AM)
Average temperature yesterday: 48 °F

Past Weeks' High & Low Weather Summary

 TemperatureHumidityPressure
High70 °F (Mar 27, 4:00 PM)100% (Mar 18, 8:00 AM)30.54 "Hg (Mar 18, 8:00 AM)
Low21 °F (Mar 17, 4:00 AM)13% (Mar 27, 6:00 PM)29.43 "Hg (Mar 31, 3:00 PM)
Average39 °F65%30.02 "Hg
* Reported Mar 16 8:00 PM — Mar 31 8:00 PM, Calgary, Weather by CustomWeather, © 2015

Note: Actual official high and low records may vary slightly from our data, if they occured in-between our weather recording intervals... More about our weather records

Advertising

Calgary weather history for previous 24 hours

 ConditionsComfort  
Time TempWeatherWind HumidityBarometerVisibility
8:00 PM
Tue, Mar 31
48 °FScattered showers. Scattered clouds.17 mph23%29.59 "Hg20 mi
7:00 PM52 °FScattered clouds.16 mph22%29.55 "Hg40 mi
6:00 PM52 °FBroken clouds.22 mph30%29.53 "Hg40 mi
5:00 PM54 °FScattered clouds.39 mph35%29.50 "Hg6 mi
4:00 PM63 °FPassing clouds.24 mph17%29.43 "Hg30 mi
3:00 PM63 °FPassing clouds.20 mph14%29.43 "Hg40 mi
2:00 PM64 °FPassing clouds.21 mph15%29.45 "Hg40 mi
1:00 PM63 °FPassing clouds.18 mph17%29.48 "Hg40 mi
12:00 PM63 °FPassing clouds.23 mph19%29.50 "Hg40 mi
11:00 AM55 °FPassing clouds.10 mph33%29.54 "Hg40 mi
10:00 AM50 °FPassing clouds.5 mph40%29.57 "Hg40 mi
9:00 AM43 °FPassing clouds.6 mph53%29.62 "Hg40 mi
8:00 AM37 °FPassing clouds.2 mph60%29.64 "Hg40 mi
7:00 AM37 °FPassing clouds.5 mph60%29.65 "Hg40 mi
6:00 AM43 °FPassing clouds.5 mph46%29.66 "Hg15 mi
5:00 AM45 °FPassing clouds.9 mph46%29.67 "Hg15 mi
4:00 AM45 °FPassing clouds.8 mph46%29.69 "Hg15 mi
3:00 AM46 °FPassing clouds.8 mph43%29.72 "Hg15 mi
2:00 AM43 °FPassing clouds.6 mph53%29.75 "Hg15 mi
1:00 AM48 °FPassing clouds.8 mph43%29.76 "Hg15 mi
12:00 AM50 °FPassing clouds.6 mph40%29.79 "Hg15 mi
11:00 PM
Mon, Mar 30
50 °FPassing clouds.7 mph40%29.81 "Hg15 mi
10:00 PM52 °FPassing clouds.6 mph41%29.83 "Hg15 mi
9:00 PM55 °FPassing clouds.5 mph33%29.83 "Hg15 mi
Weather by CustomWeather, © 2015

See weather overviewHow to use our weather pages